| time (UTC) | temp F | wind direction | speed MPH | gust MPH | rain 1hr in | rain 24hr in | rain mn in | humidity % | barometer mb |
| 20260510154602 | 49 | 179 | 1.0 | 3.0 | 0.00 | 0.00 | 0.00 | 90 | 1030.9 |
| 20260510153001 | 49 | 197 | 3.0 | 6.0 | 0.00 | 0.00 | 0.00 | 89 | 1030.9 |
| 20260510151631 | 50 | 9 | 2.0 | 3.0 | 0.00 | 0.00 | 0.00 | 89 | 1030.9 |
| 20260510150010 | 50 | 9 | 1.0 | 2.0 | 0.00 | 0.00 | 0.00 | 88 | 1031.0 |
| 20260510144503 | 51 | 9 | 0.0 | 0.0 | 0.00 | 0.00 | 0.00 | 88 | 1031.0 |
| 20260510143002 | 51 | 9 | 0.0 | 2.0 | 0.00 | 0.00 | 0.00 | 88 | 1030.9 |
| 20260510141502 | 52 | 9 | 0.0 | 2.0 | 0.00 | 0.00 | 0.00 | 87 | 1030.9 |
| 20260510140002 | 52 | 9 | 0.0 | 2.0 | 0.00 | 0.00 | 0.00 | 87 | 1031.0 |
| 20260510134502 | 52 | 9 | 0.0 | 0.0 | 0.00 | 0.00 | 0.00 | 87 | 1031.1 |
| 20260510133102 | 52 | 9 | 0.0 | 0.0 | 0.00 | 0.00 | 0.00 | 87 | 1031.2 |
| 20260510131504 | 53 | 9 | 0.0 | 0.0 | 0.00 | 0.00 | 0.00 | 86 | 1031.1 |
| 20260510130101 | 53 | 9 | 0.0 | 0.0 | 0.00 | 0.00 | 0.00 | 86 | 1031.2 |
| 20260510124502 | 53 | 9 | 0.0 | 0.0 | 0.00 | 0.00 | 0.00 | 86 | 1031.3 |
| 20260510123002 | 53 | 9 | 1.0 | 2.0 | 0.00 | 0.00 | 0.00 | 85 | 1031.4 |
| 20260510121604 | 53 | 9 | 0.0 | 2.0 | 0.00 | 0.00 | 0.00 | 85 | 1031.5 |
| 20260510120002 | 53 | 9 | 0.0 | 0.0 | 0.00 | 0.00 | 0.00 | 85 | 1031.4 |
| 20260510114601 | 53 | 9 | 0.0 | 0.0 | 0.00 | 0.00 | 0.00 | 84 | 1031.4 |
| 20260510113003 | 53 | 9 | 0.0 | 0.0 | 0.00 | 0.00 | 0.00 | 84 | 1031.3 |
| 20260510111602 | 53 | 9 | 0.0 | 2.0 | 0.00 | 0.00 | 0.00 | 84 | 1031.2 |
| 20260510110002 | 53 | 9 | 0.0 | 2.0 | 0.00 | 0.00 | 0.00 | 83 | 1031.1 |
| 20260510104603 | 54 | 116 | 0.0 | 2.0 | 0.00 | 0.00 | 0.00 | 82 | 1031.0 |
| 20260510103002 | 54 | 116 | 0.0 | 0.0 | 0.00 | 0.00 | 0.00 | 81 | 1031.0 |
| 20260510101501 | 54 | 116 | 0.0 | 0.0 | 0.00 | 0.00 | 0.00 | 81 | 1031.0 |
| 20260510100122 | 54 | 116 | 0.0 | 2.0 | 0.00 | 0.00 | 0.00 | 80 | 1030.9 |
| 20260510094501 | 54 | 116 | 0.0 | 3.0 | 0.00 | 0.00 | 0.00 | 79 | 1030.8 |
| 20260510093103 | 54 | 195 | 0.0 | 1.0 | 0.00 | 0.00 | 0.00 | 79 | 1030.7 |
| 20260510091501 | 54 | 102 | 2.0 | 4.0 | 0.00 | 0.00 | 0.00 | 79 | 1030.6 |
| 20260510090104 | 55 | 98 | 1.0 | 3.0 | 0.00 | 0.00 | 0.00 | 78 | 1030.4 |
| 20260510084502 | 55 | 166 | 1.0 | 3.0 | 0.00 | 0.00 | 0.00 | 77 | 1030.4 |
| 20260510083005 | 55 | 148 | 1.0 | 4.0 | 0.00 | 0.00 | 0.00 | 77 | 1030.1 |
| 20260510081602 | 55 | 150 | 1.0 | 5.0 | 0.00 | 0.00 | 0.00 | 77 | 1029.8 |
| 20260510080005 | 55 | 161 | 2.0 | 6.0 | 0.00 | 0.00 | 0.00 | 76 | 1029.6 |
| 20260510074602 | 55 | 151 | 2.0 | 5.0 | 0.00 | 0.00 | 0.00 | 76 | 1029.4 |
| 20260510073001 | 55 | 138 | 2.0 | 5.0 | 0.00 | 0.00 | 0.00 | 75 | 1029.2 |
| 20260510071602 | 56 | 90 | 3.0 | 5.0 | 0.00 | 0.00 | 0.00 | 76 | 1029.1 |
| 20260510070002 | 56 | 103 | 4.0 | 6.0 | 0.00 | 0.00 | 0.00 | 75 | 1029.0 |
| 20260510064601 | 56 | 144 | 4.0 | 6.0 | 0.00 | 0.00 | 0.00 | 75 | 1028.9 |
| 20260510063002 | 57 | 136 | 3.0 | 10.0 | 0.00 | 0.00 | 0.00 | 74 | 1028.9 |
| 20260510061503 | 57 | 161 | 5.0 | 10.0 | 0.00 | 0.00 | 0.00 | 74 | 1028.8 |
| 20260510054502 | 58 | 188 | 6.0 | 11.0 | 0.00 | 0.00 | 0.00 | 72 | 1028.7 |
| 20260510053119 | 59 | 204 | 8.0 | 10.0 | 0.00 | 0.00 | 0.00 | 71 | 1028.5 |
| 20260510051609 | 60 | 181 | 8.0 | 12.0 | 0.00 | 0.00 | 0.00 | 70 | 1028.5 |
| 20260510050002 | 60 | 183 | 6.0 | 11.0 | 0.00 | 0.00 | 0.00 | 70 | 1028.4 |
| 20260510044602 | 60 | 169 | 7.0 | 10.0 | 0.00 | 0.00 | 0.00 | 70 | 1028.3 |
| 20260510043003 | 61 | 169 | 5.0 | 9.0 | 0.00 | 0.00 | 0.00 | 70 | 1028.2 |
| 20260510041602 | 60 | 207 | 4.0 | 10.0 | 0.00 | 0.00 | 0.00 | 71 | 1028.2 |
| 20260510040001 | 60 | 179 | 9.0 | 14.0 | 0.00 | 0.00 | 0.00 | 72 | 1028.2 |
| 20260510034604 | 59 | 165 | 8.0 | 13.0 | 0.00 | 0.00 | 0.00 | 74 | 1028.2 |
| 20260510033002 | 59 | 115 | 7.0 | 11.0 | 0.00 | 0.00 | 0.00 | 75 | 1028.1 |
| 20260510031502 | 58 | 135 | 5.0 | 10.0 | 0.00 | 0.00 | 0.00 | 76 | 1028.2 |
| 20260510030105 | 57 | 109 | 4.0 | 8.0 | 0.00 | 0.00 | 0.00 | 76 | 1028.2 |
| 20260510024502 | 58 | 121 | 5.0 | 7.0 | 0.00 | 0.00 | 0.00 | 75 | 1028.4 |
| 20260510023102 | 58 | 54 | 3.0 | 7.0 | 0.00 | 0.00 | 0.00 | 80 | 1028.5 |
| 20260510021501 | 56 | 85 | 1.0 | 6.0 | 0.00 | 0.00 | 0.00 | 82 | 1028.8 |
| 20260510020002 | 55 | 143 | 2.0 | 6.0 | 0.00 | 0.00 | 0.00 | 89 | 1029.1 |
| 20260510014602 | 54 | 190 | 1.0 | 5.0 | 0.00 | 0.00 | 0.00 | 93 | 1029.4 |
| 20260510013002 | 52 | 159 | 3.0 | 5.0 | 0.00 | 0.00 | 0.00 | 94 | 1029.6 |
| 20260510011603 | 51 | 165 | 2.0 | 5.0 | 0.00 | 0.00 | 0.00 | 95 | 1029.8 |
| 20260510010002 | 50 | 136 | 2.0 | 4.0 | 0.00 | 0.00 | 0.00 | 95 | 1029.8 |
| 20260510004603 | 50 | 16 | 0.0 | 1.0 | 0.00 | 0.00 | 0.00 | 95 | 1029.8 |
| 20260510003002 | 49 | 16 | 0.0 | 0.0 | 0.00 | 0.00 | 0.00 | 95 | 1030.0 |
| 20260510001601 | 48 | 322 | 0.0 | 2.0 | 0.00 | 0.00 | 0.00 | 95 | 1029.9 |
| 20260510000002 | 47 | 56 | 0.0 | 2.0 | 0.00 | 0.00 | 0.00 | 95 | 1030.0 |
| 20260509234603 | 46 | 308 | 0.0 | 2.0 | 0.00 | 0.00 | 0.00 | 95 | 1030.1 |
| 20260509233001 | 45 | 308 | 0.0 | 1.0 | 0.00 | 0.00 | 0.00 | 95 | 1030.1 |
| 20260509231602 | 45 | 308 | 0.0 | 1.0 | 0.00 | 0.00 | 0.00 | 95 | 1030.0 |
| 20260509230002 | 44 | 271 | 0.0 | 1.0 | 0.00 | 0.00 | 0.00 | 95 | 1029.9 |
| 20260509224601 | 43 | 254 | 0.0 | 0.0 | 0.00 | 0.00 | 0.00 | 95 | 1029.8 |
| 20260509223004 | 43 | 254 | 0.0 | 1.0 | 0.00 | 0.00 | 0.00 | 95 | 1029.7 |
| 20260509221603 | 42 | 339 | 0.0 | 2.0 | 0.00 | 0.00 | 0.00 | 95 | 1029.6 |
| 20260509220004 | 42 | 338 | 0.0 | 2.0 | 0.00 | 0.00 | 0.00 | 95 | 1029.3 |
| 20260509213003 | 41 | 338 | 0.0 | 1.0 | 0.00 | 0.00 | 0.00 | 94 | 1029.0 |
| 20260509211603 | 40 | 339 | 0.0 | 3.0 | 0.00 | 0.00 | 0.00 | 94 | 1028.8 |
| 20260509210002 | 40 | 339 | 0.0 | 2.0 | 0.00 | 0.00 | 0.00 | 94 | 1028.6 |
| 20260509204602 | 39 | 338 | 0.0 | 1.0 | 0.00 | 0.00 | 0.00 | 94 | 1028.4 |
| 20260509203002 | 39 | 198 | 0.0 | 1.0 | 0.00 | 0.00 | 0.00 | 94 | 1028.3 |
| 20260509201610 | 39 | 198 | 0.0 | 2.0 | 0.00 | 0.00 | 0.00 | 94 | 1028.2 |
| 20260509200110 | 39 | 198 | 0.0 | 2.0 | 0.00 | 0.00 | 0.00 | 94 | 1028.1 |
| 20260509194501 | 39 | 198 | 0.0 | 0.0 | 0.00 | 0.00 | 0.00 | 94 | 1027.9 |
| 20260509193103 | 39 | 198 | 0.0 | 0.0 | 0.00 | 0.00 | 0.00 | 94 | 1027.7 |
| 20260509191603 | 39 | 198 | 0.0 | 0.0 | 0.00 | 0.00 | 0.00 | 94 | 1027.5 |
| 20260509190002 | 38 | 198 | 0.0 | 0.0 | 0.00 | 0.00 | 0.00 | 94 | 1027.3 |
| 20260509184608 | 39 | 198 | 0.0 | 0.0 | 0.00 | 0.00 | 0.00 | 94 | 1027.2 |
| 20260509183005 | 38 | 198 | 0.0 | 0.0 | 0.00 | 0.00 | 0.00 | 94 | 1026.9 |
| 20260509181502 | 38 | 198 | 0.0 | 1.0 | 0.00 | 0.00 | 0.00 | 94 | 1026.6 |
| 20260509180001 | 38 | 198 | 0.0 | 0.0 | 0.00 | 0.00 | 0.00 | 94 | 1026.4 |
| 20260509174605 | 38 | 198 | 0.0 | 1.0 | 0.00 | 0.00 | 0.00 | 93 | 1026.4 |
| 20260509173002 | 38 | 198 | 0.0 | 0.0 | 0.00 | 0.00 | 0.00 | 93 | 1026.3 |
| 20260509171602 | 38 | 198 | 0.0 | 2.0 | 0.00 | 0.00 | 0.00 | 93 | 1026.3 |
| 20260509164502 | 39 | 198 | 0.0 | 1.0 | 0.00 | 0.00 | 0.00 | 93 | 1026.4 |
| 20260509163102 | 39 | 190 | 0.0 | 2.0 | 0.00 | 0.00 | 0.00 | 93 | 1026.3 |
| 20260509161503 | 38 | 168 | 0.0 | 0.0 | 0.00 | 0.00 | 0.00 | 93 | 1026.2 |